{"data":{"norad_id":48119,"epoch":"2026-05-25T01:19:59.716128Z","epoch_age_seconds":74185,"freshness":"FRESH","line1":"1 48119U 21027AD  26145.05555227  .00001509  00000+0  60363-4 0  9990","line2":"2 48119  53.1576 157.2355 0001247  89.6213 270.4931 15.31710652284374","mean_motion":15.31710652,"eccentricity":0.0001247,"inclination_deg":53.1576,"raan_deg":157.2355,"arg_perigee_deg":89.6213,"mean_anomaly_deg":270.4931,"bstar":6.0363e-5,"rev_number":28437,"period_min":94.012534163665,"perigee_km":469.85419135023,"apogee_km":471.56229335367,"semimajor_km":6848.8452423519,"source":"CELESTRAK","updated_at":"2026-05-25T13:38:16.645545Z"}}